Lyndonville, VT

4:59 PM EST on November 21, 2017 (GMT -0500)
Lyndonville

Weather History for KCDA - December, 2012

Change the Weather History Date:

Thursday, December 6, 2012

  Actual Average (K1V4) Record (K1V4)
Temperature  
Mean Temperature 24 °F -  
Max Temperature 30 °F 32 °F 61 °F (2001)
Min Temperature 19 °F 17 °F -20 °F (1901)
Degree Days  
Heating Degree Days 40    
Moisture  
Dew Point 16 °F    
Average Humidity 67    
Maximum Humidity 87    
Minimum Humidity 51    
Precipitation  
Precipitation 0.00 in - - ()
Sea Level Pressure  
Sea Level Pressure 30.24 in    
Wind  
Wind Speed 5 mph (NW)    
Max Wind Speed 12 mph    
Max Gust Speed 18 mph    
Visibility 10 miles    
Events Snow    
Averages and records for this station are not official NWS values.
T = Trace of Precipitation, MM = Missing Value Source: NWS Daily Summary

Daily Weather History Graph

Daily Weather History Graph

Search for Another Location

Airport or City:

Trip Planner

Search our weather history database for the weather conditions in past years. The results will help you decide how hot, cold, wet, or windy it might be!

Date:

Astronomy

Dec. 06, 2012 Rise Set
Actual Time 7:10 AM EST 4:08 PM EST
Civil Twilight 6:37 AM EST 4:41 PM EST
Nautical Twilight 6:00 AM EST 5:17 PM EST
Astronomical Twilight 5:25 AM EST 5:53 PM EST
Moon No Moon Rise 11:47 AM EST (12/6)
Length of Visible Light 10h 03m
Length of Day
8h 57m
Waning Gibbous, 49% of the Moon is Illuminated
Dec 6
Waning Gibbous
Dec 13
New
Dec 20
First Quarter
Dec 28
Full
Jan 4
Last Quarter

Hourly Weather History & Observations

Time (EST) Temp. Windchill Dew Point Humidity Pressure Visibility Wind Dir Wind Speed Gust Speed Precip Events Conditions
12:15 AM 25.3 °F 18.5 °F 18.3 °F 75% 30.16 in 4.0 mi NW 5.8 mph - N/A Snow Light Snow
12:35 AM 25.3 °F 16.7 °F 18.1 °F 74% 30.16 in 5.0 mi NW 8.1 mph - N/A Snow Light Snow
12:55 AM 25.2 °F 17.3 °F 18.0 °F 74% 30.16 in 4.0 mi NW 6.9 mph - N/A Snow Light Snow
1:15 AM 25.2 °F 15.7 °F 17.4 °F 72% 30.17 in 7.0 mi NW 9.2 mph 16.1 mph N/A Snow Light Snow
1:35 AM 25.2 °F 18.3 °F 16.9 °F 71% 30.17 in 7.0 mi NW 5.8 mph 10.4 mph N/A Snow Light Snow
1:55 AM 25.0 °F 14.8 °F 16.0 °F 69% 30.18 in 10.0 mi NW 10.4 mph 16.1 mph N/A Snow Light Snow
2:15 AM 24.8 °F 14.0 °F 17.4 °F 74% 30.19 in 10.0 mi NW 11.5 mph - N/A Snow Light Snow
2:35 AM 24.8 °F 15.3 °F 17.2 °F 73% 30.20 in 10.0 mi WNW 9.2 mph - N/A Snow Light Snow
2:55 AM 24.8 °F 15.3 °F 18.1 °F 76% 30.20 in 10.0 mi WNW 9.2 mph 16.1 mph N/A Snow Light Snow
3:15 AM 24.8 °F 14.6 °F 17.1 °F 72% 30.21 in 10.0 mi NW 10.4 mph - N/A   Overcast
3:35 AM 24.8 °F 14.0 °F 16.0 °F 69% 30.21 in 10.0 mi NW 11.5 mph 16.1 mph N/A Snow Light Snow
3:55 AM 24.8 °F 14.6 °F 15.4 °F 68% 30.23 in 10.0 mi NW 10.4 mph 18.4 mph N/A   Overcast
4:15 AM 24.8 °F 16.9 °F 15.6 °F 68% 30.23 in 10.0 mi NW 6.9 mph - N/A   Overcast
4:35 AM 24.8 °F 14.0 °F 14.9 °F 66% 30.23 in 10.0 mi NW 11.5 mph 17.3 mph N/A   Overcast
4:55 AM 24.8 °F 19.1 °F 15.8 °F 69% 30.24 in 10.0 mi NW 4.6 mph 16.1 mph N/A Snow Light Snow
5:15 AM 24.8 °F 15.3 °F 15.6 °F 68% 30.25 in 10.0 mi NNW 9.2 mph 17.3 mph N/A   Overcast
5:35 AM 24.1 °F 13.1 °F 13.6 °F 64% 30.26 in 10.0 mi NW 11.5 mph - N/A   Mostly Cloudy
5:55 AM 23.5 °F 15.4 °F 13.8 °F 66% 30.27 in 10.0 mi NNW 6.9 mph - N/A   Mostly Cloudy
6:15 AM 23.5 °F 15.4 °F 13.5 °F 65% 30.28 in 10.0 mi NNW 6.9 mph - N/A   Overcast
6:35 AM 22.8 °F 15.5 °F 13.1 °F 66% 30.30 in 10.0 mi North 5.8 mph - N/A   Mostly Cloudy
6:55 AM - - - N/A% - - North - - N/A   Unknown
7:15 AM - - - N/A% - - North - - N/A   Unknown
7:35 AM - - - N/A% - - North - - N/A   Unknown
7:55 AM - - - N/A% - - North - - N/A   Unknown
8:15 AM - - - N/A% - - North - - N/A   Unknown
8:35 AM - - - N/A% - - North - - N/A   Unknown
8:55 AM - - - N/A% - - North - - N/A   Unknown
9:15 AM - - - N/A% - - North - - N/A   Unknown
9:35 AM - - - N/A% - - North - - N/A   Unknown
9:55 AM - - - N/A% - - North - - N/A   Unknown
10:15 AM - - - N/A% - - North - - N/A   Unknown
10:35 AM - - - N/A% - - North - - N/A   Unknown
10:55 AM - - - N/A% - - North - - N/A   Unknown
11:15 AM - - - N/A% - - North - - N/A   Unknown
11:35 AM 27.9 °F - 14.7 °F 58% 30.30 in - Calm Calm - N/A   Unknown
11:55 AM 27.3 °F 23.4 °F 14.9 °F 60% 30.29 in 10.0 mi WNW 3.5 mph - N/A   Unknown
12:15 PM 27.5 °F - 14.5 °F 58% 30.29 in 10.0 mi Calm Calm - N/A   Mostly Cloudy
12:35 PM 29.1 °F 25.4 °F 15.3 °F 56% 30.28 in 10.0 mi North 3.5 mph - N/A   Scattered Clouds
12:55 PM 29.3 °F 24.3 °F 15.3 °F 56% 30.27 in 10.0 mi NW 4.6 mph - N/A   Clear
1:15 PM 30.4 °F 25.6 °F 15.4 °F 54% 30.26 in 10.0 mi NW 4.6 mph - N/A   Clear
1:35 PM 30.6 °F 23.1 °F 15.4 °F 54% 30.26 in 10.0 mi North 8.1 mph - N/A   Clear
1:55 PM 30.7 °F 24.9 °F 14.9 °F 52% 30.26 in 10.0 mi NE 5.8 mph - N/A   Clear
2:15 PM 30.2 °F 26.7 °F 14.5 °F 52% 30.26 in 10.0 mi NNE 3.5 mph - N/A   Clear
2:35 PM 30.6 °F 24.7 °F 14.9 °F 52% 30.26 in 10.0 mi NNE 5.8 mph - N/A   Clear
2:55 PM 30.2 °F - 14.5 °F 52% 30.26 in 10.0 mi Calm Calm - N/A   Clear
3:15 PM 30.2 °F - 14.0 °F 51% 30.26 in 10.0 mi Calm Calm - N/A   Clear
3:35 PM 29.8 °F - 13.8 °F 51% 30.26 in 10.0 mi Calm Calm - N/A   Clear
3:55 PM 29.5 °F - 13.5 °F 51% 30.25 in 10.0 mi Calm Calm - N/A   Clear
4:15 PM 28.4 °F - 14.0 °F 55% 30.25 in 10.0 mi Calm Calm - N/A   Clear
4:35 PM 28.4 °F 24.6 °F 14.0 °F 55% 30.25 in 10.0 mi South 3.5 mph - N/A   Clear
4:55 PM 28.4 °F - 14.2 °F 55% 30.25 in 10.0 mi Calm Calm - N/A   Clear
5:15 PM 26.6 °F - 14.2 °F 60% 30.24 in 10.0 mi Calm Calm - N/A   Clear
5:35 PM 25.3 °F - 14.5 °F 64% 30.25 in 10.0 mi Calm Calm - N/A   Clear
5:55 PM 26.2 °F - 14.9 °F 62% 30.25 in 10.0 mi Calm Calm - N/A   Clear
6:15 PM 26.1 °F - 15.6 °F 65% 30.25 in 10.0 mi Calm Calm - N/A   Clear
6:35 PM 25.2 °F - 16.2 °F 69% 30.25 in 10.0 mi Calm Calm - N/A   Clear
6:55 PM 23.9 °F - 16.2 °F 72% 30.25 in 10.0 mi Calm Calm - N/A   Clear
7:15 PM 23.5 °F - 15.8 °F 72% 30.25 in 10.0 mi Calm Calm - N/A   Clear
7:35 PM 23.2 °F - 15.8 °F 73% 30.25 in 10.0 mi Calm Calm - N/A   Clear
8:15 PM 20.7 °F - 15.6 °F 81% 30.24 in 10.0 mi Calm Calm - N/A   Clear
8:35 PM 20.7 °F - 15.3 °F 80% 30.24 in 10.0 mi Calm Calm - N/A   Clear
9:35 PM 19.8 °F 14.7 °F 15.6 °F 84% 30.23 in 10.0 mi East 3.5 mph - N/A   Clear
9:55 PM 19.2 °F - 16.0 °F 87% 30.23 in 10.0 mi Calm Calm - N/A   Clear
10:15 PM 20.3 °F - 16.3 °F 85% 30.23 in 10.0 mi Calm Calm - N/A   Clear
10:35 PM 20.3 °F - 15.8 °F 83% 30.23 in 10.0 mi Calm Calm - N/A   Clear
10:55 PM 19.4 °F - 15.8 °F 86% 30.23 in 10.0 mi Calm Calm - N/A   Scattered Clouds
11:15 PM 20.1 °F - 16.3 °F 85% 30.22 in 10.0 mi Calm Calm - N/A   Scattered Clouds
11:35 PM 20.8 °F - 16.7 °F 84% 30.21 in 10.0 mi Calm Calm - N/A   Clear
11:55 PM 21.2 °F - 17.2 °F 85% 30.20 in 10.0 mi Calm Calm - N/A   Scattered Clouds